Tracking 19242 objects as of 20-Sep-2018
HD Live streaming from Space Station
objects crossing your sky now

FENGYUN 1C DEB

Track FENGYUN 1C DEB now!
10-day predictions


NORAD ID: 31531
Int'l Code: 1999-025BXW
Perigee: 617.5 km
Apogee: 1,028.5 km
Inclination: 98.7 °
Period: 101.2 minutes
Semi major axis: 7193 km
RCS: 0.012 m2 (small)
Launch date: May 10, 1999
Source: People's Republic of China (PRC)
Launch site: Taiyaun Space Center, China (TSC)

Note: This is SATELLITE DEBRIS
aabbcc
Your satellite tracking list
Your tracking list is empty




NASA's NSSDC Master Catalog

Two Line Element Set (TLE):
1 31531U 99025BXW 18262.45053812 +.00000114 +00000-0 +47804-4 0  9998
2 31531 098.6866 332.1322 0285660 084.0547 279.3109 14.22822805591616
Source of the keplerian elements: AFSPC